Starlink 31463

operational
NORAD ID: 59296 Int'l Des: 2024-056 Owner: SPXS Country: US Constellation: starlink
LEOCIRCULAR

关于 Starlink 31463

正在加载描述...

实时位置

正在加载3D地球...

即将过境

高度历史

Altitude vs Time

uPlot chart will show altitude changes over time

两行轨道根数

1 59296U 24056A 25351.32636935 -.00000260 00000-0 61864-7 0 9992
2 59296 43.0018 331.9058 0000613 244.2297 115.8492 15.27588931 98600
Epoch: Dec 17, 2025 • Age: 13 hours

当前状态

高度 486.0 km
速度 7.63 km/s
星下点 41.03°N, 41.24°E
发射日期 Mar 24, 2024
运行时间 1.7 years
类型 internet

技术详情

分类 Payload
质量 730.00 kg
干质量 700.00 kg
总质量 730.00 kg
长度 0.30 m
直径 4.10 m
跨度 29.00 m
形状 Box + pan
制造商 SPXS
平台类型 Starlink V2M
阶段状态 In Orbit
所有者/国家 SPXS/US

大型星座

Loading constellations...